Weather History for Price, UT

Change the Weather History Date:

Monday, February 11, 2013

  Actual Average Record
Temperature  
Mean Temperature 26 °F -  
Max Temperature 33 °F 36 °F 60 °F (1970)
Min Temperature 19 °F 18 °F 3 °F (1974)
Degree Days  
Heating Degree Days 39    
Moisture  
Dew Point 7 °F    
Average Humidity 49    
Maximum Humidity 62    
Minimum Humidity 35    
Precipitation  
Precipitation 0.00 in - - ()
Sea Level Pressure  
Sea Level Pressure 30.12 in    
Wind  
Wind Speed 7 mph (NW)    
Max Wind Speed 16 mph    
Max Gust Speed 24 mph    
Visibility 10 miles    
Events      
Averages and records for this station are not official NWS values.
T = Trace of Precipitation, MM = Missing Value Source: NWS Daily Summary

Daily Weather History Graph

Daily Weather History Graph

Search for Another Location

Airport:

Trip Planner

Search our weather history database for the weather conditions in past years. The results will help you decide how hot, cold, wet, or windy it might be!

Date:

Astronomy

Feb. 11, 2013 Rise Set
Actual Time 7:19 AM MST 5:55 PM MST
Civil Twilight 6:51 AM MST 6:23 PM MST
Nautical Twilight 6:20 AM MST 6:54 PM MST
Astronomical Twilight 5:49 AM MST 7:26 PM MST
Moon 7:46 AM MST (2/11) 7:55 PM MST (2/11)
Length of Visible Light 11h 31m
Length of Day
10h 35m
Waxing Crescent, 3% of the Moon is Illuminated
Feb 11
Waxing Crescent
Feb 17
First Quarter
Feb 25
Full
Mar 4
Last Quarter
Mar 11
New

Hourly Weather History & Observations

Time (MST) Temp. Windchill Dew Point Humidity Pressure Visibility Wind Dir Wind Speed Gust Speed Precip Events Conditions
12:53 AM 23.0 °F 11.7 °F 10.9 °F 60% 30.01 in 10.0 mi NNE 11.5 mph - N/A   Clear
1:53 AM 19.9 °F 13.4 °F 9.0 °F 62% 30.03 in 10.0 mi NNW 4.6 mph - N/A   Clear
2:53 AM 21.0 °F 13.4 °F 8.1 °F 57% 30.02 in 10.0 mi NW 5.8 mph - N/A   Clear
3:53 AM 21.0 °F 13.4 °F 8.1 °F 57% 30.02 in 10.0 mi WNW 5.8 mph - N/A   Clear
4:53 AM 21.0 °F - 7.0 °F 55% 30.03 in 10.0 mi Calm Calm - N/A   Clear
5:53 AM 19.9 °F 13.4 °F 7.0 °F 57% 30.05 in 10.0 mi Variable 4.6 mph - N/A   Clear
6:53 AM 19.0 °F 11.1 °F 6.1 °F 57% 30.08 in 10.0 mi NW 5.8 mph - N/A   Clear
7:53 AM 19.9 °F 14.9 °F 7.0 °F 57% 30.11 in 10.0 mi SSW 3.5 mph - N/A   Partly Cloudy
8:53 AM 24.1 °F - 7.0 °F 48% 30.14 in 10.0 mi Calm Calm - N/A   Clear
9:53 AM 28.9 °F 21.9 °F 7.0 °F 40% 30.13 in 10.0 mi Variable 6.9 mph - N/A   Clear
10:53 AM 30.0 °F 21.7 °F 8.1 °F 40% 30.13 in 10.0 mi North 9.2 mph - N/A   Clear
11:53 AM 32.0 °F 28.7 °F 9.0 °F 38% 30.10 in 10.0 mi NNE 3.5 mph - N/A   Clear
12:53 PM 32.0 °F 26.4 °F 9.0 °F 38% 30.09 in 10.0 mi WSW 5.8 mph - N/A   Clear
1:53 PM 32.0 °F - 8.1 °F 37% 30.09 in 10.0 mi Calm Calm - N/A   Overcast
2:53 PM 33.1 °F 23.9 °F 8.1 °F 35% 30.08 in 10.0 mi NW 12.7 mph 20.7 mph N/A   Partly Cloudy
3:53 PM 32.0 °F 22.1 °F 7.0 °F 35% 30.10 in 10.0 mi NNW 13.8 mph - N/A   Clear
4:53 PM 30.0 °F 19.5 °F 6.1 °F 36% 30.12 in 10.0 mi NW 13.8 mph - N/A   Clear
5:53 PM 27.0 °F 17.3 °F 7.0 °F 43% 30.16 in 10.0 mi NW 10.4 mph - N/A   Clear
6:53 PM 24.1 °F 13.1 °F 8.1 °F 51% 30.20 in 10.0 mi NW 11.5 mph - N/A   Clear
7:53 PM 23.0 °F 13.1 °F 8.1 °F 53% 30.22 in 10.0 mi WNW 9.2 mph - N/A   Clear
8:53 PM 21.0 °F 9.9 °F 7.0 °F 55% 30.23 in 10.0 mi NW 10.4 mph - N/A   Clear
9:53 PM 19.0 °F 8.2 °F 6.1 °F 57% 30.24 in 10.0 mi NW 9.2 mph - N/A   Clear
10:53 PM 19.9 °F 5.7 °F 5.0 °F 52% 30.23 in 10.0 mi NNW 16.1 mph 23.0 mph N/A   Clear
11:53 PM 19.9 °F 7.3 °F 3.9 °F 50% 30.23 in 10.0 mi NW 12.7 mph 24.2 mph N/A   Clear